Location: Home
(42.5358°N, 72.7383°W)
Time: 21:55:39
(UTC-05:00)

Vanguard 2 Rocket - Pass Details

Date: 04 December 2021
Orbit: 554 x 3325 km, 32.9° (Epoch: 21 January)

Event Time Altitude Azimuth Distance (km) Brightness Sun altitude
Rises 18:59:57 0° 249° (WSW) 3,465 11.0 -29.1°
Reaches altitude 10° 19:02:08 10° 242° (WSW) 2,757 10.1 -29.5°
Maximum altitude 19:08:32 45° 171° (S) 1,834 8.3 -30.7°
Enters shadow 19:10:05 42° 147° (SSE) 2,046 8.3 -30.9°
Drops below altitude 10° 19:19:33 10° 105° (ESE) 4,683 - -32.7°
Sets 19:24:26 0° 100° (E) 6,145 - -33.6°
